User: anonymous   Login
Location: Columbia
(38.9520°N, 92.3340°W)
Time: 05:05:45
(UTC-05:00)
Language:

Cosmos 1633 - Orbit

View from above orbital plane
View from above orbital plane
View from above satellite
View from above satellite

Ground track
Ground track

The orbit data is extracted from the following two-line orbital elements,

1 15592U 85020A   16273.09579821  .00004250  00000-0  15649-3 0  9996
2 15592  82.5391 220.7061 0014945  27.4617 332.7408 15.27457538724423
Epoch (UTC): 29 September 2016 02:17:56
Eccentricity: 0.0014945
inclination: 82.5391°
perigee height: 473 km
apogee height: 493 km
right ascension of ascending node: 220.7061°
argument of perigee: 27.4617°
revolutions per day: 15.27457538
mean anomaly at epoch: 332.7408°
orbit number at epoch: 72442

The dashed part of the orbit path shows where the satellite is in the earth's shadow,  

DLR